Find Starlink 5149

NORAD ID: 53981 Int'l Des: 2022-125 Owner: SPXS Country: US Constellation: starlink operational
LEOCIRCULAR

Live Position

Loading 3D Globe...

About Starlink 5149

Description loading...

Upcoming Passes

Passes for default location (London). Set your location on the main map for personalized predictions.

Altitude History

Loading altitude history...

Two-Line Element Set

1 53981U 22125T 26122.98875740 .00000031 00000-0 20056-4 0 9990
2 53981 53.2169 320.1388 0001708 100.6711 259.4474 15.08831365197801
Epoch: May 2, 2026 • Age: 11 hours

Current Status

Altitude 556.7 km
Velocity 7.58 km/s
Sub-Earth Point -46.73°S, 173.73°E
Launch Date Oct 5, 2022
Age 3.5 years
Type internet

Technical Details

Classification Payload
Mass 305.00 kg
Dry Mass 290.00 kg
Total Mass 305.00 kg
Length 0.20 m
Diameter 2.80 m
Span 9.00 m
Shape Box + pan
Manufacturer SPXS
Bus Type Starlink
Phase Status In Orbit
Owner/State SPXS/US

Most Searched